sat.trackr.live / text

‹ back to catalog

ZIYUAN 3-02 (ZY 3-02)

NORAD 41556 · 2016-033A

PAYLOAD ACTIVE UNKNOWN

§ Identity

Operator
Country
PRC
Launch date
2016-05-30
Launch site
TAISC
Launch vehicle
Mass (kg)
RCS (m²)
4.61

Purposes: earth_obs

External: N2YO · Heavens-Above · Gunter

§ Orbital elements

Epoch: 2026-09-09T04:24:23.728608Z

Period
94.66 min
Inclination
97.3780°
Eccentricity
0.0013244
Mean motion
15.21225508 rev/d
Perigee alt
493.0 km
Apogee alt
511.3 km
Semi-major
6,880.3 km
B*
2.0172e-4
RAAN
326.3133°
Arg perigee
12.8092°
Mean anomaly
347.3478°
Rev number
57,075

§ Raw data

ZIYUAN 3-02 (ZY 3-02)1 41556U 16033A   26252.18360797  .00004443  00000+0  20172-3 0  99912 41556  97.3780 326.3133 0013244  12.8092 347.3478 15.21225508570755

JSON: /api/v1/satellites/41556 · /tle

For live sub-satellite position, see the globe view (requires WebGL).

§ Visibility from observer

Set your observer location to see the next 7 days of passes ≥ 10°. The values pass through the URL so the page stays shareable.

No JS? Fill the form by hand. The geolocation button needs JavaScript.

§ Radio — SatNOGS DB

ModeDescriptionDownlinkUplink
BPSK S-band telemetry 2.201 GHz

1 transmitter · refreshed weekly from db.satnogs.org